STARLINK-1254 (45216 NORAD) Tracking and Keplerian Element Data

This shows tracking and keplerian element data for the satellite.

Feedback or suggestion? Click here.




ElementValue
Catalog45216
NameSTARLINK-1254
Epoch Orbit657
Epoch Day88.25001157
Epoch Year2020
RAAN72.2133
Inclination52.9988
Eccentricity0.0008183
Argument of Perigee307.579
Mean Anonmoly258.4431
Mean Motion15.62750465
Decay Rate0.00019473
L11 45216U 20012AQ 20088.25001157 .00019473 00000-0 21775-3 0 9991
L22 45216 52.9988 72.2133 0008183 307.5790 258.4431 15.62750465 6576

Live tracking and technical data element details for STARLINK-1254 (NORAD 45216). STARLINK-1254 can be tracked NOW for your location showing map with azimuth and elevation plus other details from your city location.

Track the satellite on the map from your city or location and see movement details for azimuth, elevation, latitude, longitude, range, height, and movement on the map or in text.







IsCatalogInMostPopularTable: catalog: 45216, numindb: 5
Update: records affected: 1



GetName: 45216 STARLINK-1254

Hit Count: updated at: Mon, 30 Mar 2020 21:31:00 GMT